Time,TemperatureF,DewpointF,PressureIn,WindDirection,WindDirectionDegrees,WindSpeedMPH,WindSpeedGustMPH,Humidity,HourlyPrecipIn,Conditions,Clouds,dailyrainin,SolarRadiationWatts/m^2,SoftwareType,DateUTC
2013-12-16 00:01:00,26.9,20.7,29.86,SSE,157,0.0,1.0,77,0.00,,---,0.00,0.00,VWS V14.00,2013-12-16 05:01:00,
2013-12-16 00:06:00,26.7,20.5,29.86,South,175,0.0,3.0,77,0.00,,---,0.00,0.00,VWS V14.00,2013-12-16 05:06:00,
2013-12-16 00:11:00,26.6,20.4,29.86,SSW,206,0.0,2.0,77,0.00,,---,0.00,0.00,VWS V14.00,2013-12-16 05:11:00,
2013-12-16 00:16:00,26.6,20.4,29.86,SSW,209,1.0,4.0,77,0.00,,---,0.00,0.00,VWS V14.00,2013-12-16 05:16:00,
2013-12-16 00:21:00,26.4,20.5,29.87,SSW,211,0.0,2.0,78,0.00,,---,0.00,0.00,VWS V14.00,2013-12-16 05:21:00,
2013-12-16 00:26:00,26.4,20.2,29.86,SSW,200,2.0,3.0,77,0.00,,---,0.00,0.00,VWS V14.00,2013-12-16 05:26:00,
2013-12-16 00:31:00,26.3,20.1,29.86,SSE,161,2.0,3.0,77,0.00,,---,0.00,0.00,VWS V14.00,2013-12-16 05:31:00,
2013-12-16 00:36:00,26.3,20.1,29.86,South,182,3.0,3.0,77,0.00,,---,0.00,0.00,VWS V14.00,2013-12-16 05:36:00,
2013-12-16 00:41:00,26.1,19.9,29.86,SSW,200,5.0,6.0,77,0.00,,---,0.00,0.00,VWS V14.00,2013-12-16 05:41:00,
2013-12-16 00:46:00,26.1,19.9,29.86,SSW,192,0.0,3.0,77,0.00,,---,0.00,0.00,VWS V14.00,2013-12-16 05:46:00,
2013-12-16 00:51:00,26.1,19.9,29.86,South,181,0.0,4.0,77,0.00,,---,0.00,0.00,VWS V14.00,2013-12-16 05:51:00,
2013-12-16 00:56:00,26.1,19.9,29.87,SW,217,3.0,7.0,77,0.00,,---,0.00,0.00,VWS V14.00,2013-12-16 05:56:00,
2013-12-16 01:01:00,26.1,19.6,29.87,South,184,1.0,4.0,76,0.00,,---,0.00,0.00,VWS V14.00,2013-12-16 06:01:00,
2013-12-16 01:06:00,26.3,19.8,29.87,SW,227,3.0,5.0,76,0.00,,---,0.00,0.00,VWS V14.00,2013-12-16 06:06:00,
2013-12-16 01:11:00,26.3,20.1,29.87,SW,217,5.0,6.0,77,0.00,,---,0.00,0.00,VWS V14.00,2013-12-16 06:11:00,
2013-12-16 01:16:00,26.3,20.1,29.87,SSW,213,4.0,5.0,77,0.00,,---,0.00,0.00,VWS V14.00,2013-12-16 06:16:00,
2013-12-16 01:21:00,26.3,19.8,29.87,SSE,161,1.0,3.0,76,0.00,,---,0.00,0.00,VWS V14.00,2013-12-16 06:21:00,
2013-12-16 01:26:00,26.3,19.8,29.87,SW,219,3.0,4.0,76,0.00,,---,0.00,0.00,VWS V14.00,2013-12-16 06:26:00,
2013-12-16 01:31:00,26.3,19.8,29.87,SSW,192,0.0,1.0,76,0.00,,---,0.00,0.00,VWS V14.00,2013-12-16 06:31:00,
2013-12-16 01:36:00,26.1,19.9,29.88,SSE,155,0.0,2.0,77,0.00,,---,0.00,0.00,VWS V14.00,2013-12-16 06:36:00,
2013-12-16 01:41:00,26.1,19.9,29.88,SW,219,5.0,6.0,77,0.00,,---,0.00,0.00,VWS V14.00,2013-12-16 06:41:00,
2013-12-16 01:46:00,26.3,20.1,29.88,SW,223,1.0,4.0,77,0.00,,---,0.00,0.00,VWS V14.00,2013-12-16 06:46:00,
2013-12-16 01:51:00,26.3,20.1,29.88,WSW,241,3.0,5.0,77,0.00,,---,0.00,0.00,VWS V14.00,2013-12-16 06:51:00,
2013-12-16 01:56:00,26.1,19.6,29.88,SW,217,0.0,2.0,76,0.00,,---,0.00,0.00,VWS V14.00,2013-12-16 06:56:00,
2013-12-16 02:01:00,26.1,19.9,29.89,SSW,209,1.0,3.0,77,0.00,,---,0.00,0.00,VWS V14.00,2013-12-16 07:01:00,
2013-12-16 02:06:00,26.0,19.8,29.89,SW,217,0.0,0.0,77,0.00,,---,0.00,0.00,VWS V14.00,2013-12-16 07:06:00,
2013-12-16 02:11:00,25.8,19.6,29.89,SW,217,0.0,3.0,77,0.00,,---,0.00,0.00,VWS V14.00,2013-12-16 07:11:00,
2013-12-16 02:16:00,25.8,19.9,29.89,SW,215,0.0,2.0,78,0.00,,---,0.00,0.00,VWS V14.00,2013-12-16 07:16:00,
2013-12-16 02:21:00,25.7,19.8,29.89,South,191,3.0,5.0,78,0.00,,---,0.00,0.00,VWS V14.00,2013-12-16 07:21:00,
2013-12-16 02:26:00,25.7,19.8,29.90,SSW,198,0.0,1.0,78,0.00,,---,0.00,0.00,VWS V14.00,2013-12-16 07:26:00,
2013-12-16 02:31:00,25.6,19.7,29.89,SW,215,2.0,3.0,78,0.00,,---,0.00,0.00,VWS V14.00,2013-12-16 07:31:00,
2013-12-16 02:36:00,25.6,20.0,29.90,South,184,2.0,3.0,79,0.00,,---,0.00,0.00,VWS V14.00,2013-12-16 07:36:00,
2013-12-16 02:41:00,25.6,20.0,29.90,South,171,0.0,4.0,79,0.00,,---,0.00,0.00,VWS V14.00,2013-12-16 07:41:00,
2013-12-16 02:46:00,25.6,20.0,29.90,South,184,3.0,5.0,79,0.00,,---,0.00,0.00,VWS V14.00,2013-12-16 07:46:00,
2013-12-16 02:51:00,25.7,20.1,29.90,SSW,206,2.0,3.0,79,0.00,,---,0.00,0.00,VWS V14.00,2013-12-16 07:51:00,
2013-12-16 02:56:00,26.0,20.1,29.91,SW,227,0.0,4.0,78,0.00,,---,0.00,0.00,VWS V14.00,2013-12-16 07:56:00,
2013-12-16 03:01:00,26.0,20.1,29.91,SSW,200,3.0,3.0,78,0.00,,---,0.00,0.00,VWS V14.00,2013-12-16 08:01:00,
2013-12-16 03:06:00,26.0,20.4,29.91,SSW,212,1.0,3.0,79,0.00,,---,0.00,0.00,VWS V14.00,2013-12-16 08:06:00,
2013-12-16 03:11:00,26.0,20.4,29.91,SW,224,1.0,2.0,79,0.00,,---,0.00,0.00,VWS V14.00,2013-12-16 08:11:00,
2013-12-16 03:16:00,25.8,19.6,29.92,WSW,254,6.0,14.0,77,0.00,,---,0.00,0.00,VWS V14.00,2013-12-16 08:16:00,
2013-12-16 03:21:00,26.0,18.5,29.92,WNW,284,11.0,16.0,73,0.00,,---,0.00,0.00,VWS V14.00,2013-12-16 08:21:00,
2013-12-16 03:26:00,26.1,18.3,29.92,NW,316,15.0,16.0,72,0.00,,---,0.00,0.00,VWS V14.00,2013-12-16 08:26:00,
2013-12-16 03:31:00,26.1,18.0,29.92,West,275,3.0,5.0,71,0.00,,---,0.00,0.00,VWS V14.00,2013-12-16 08:31:00,
2013-12-16 03:36:00,26.0,17.6,29.92,West,271,13.0,13.0,70,0.00,,---,0.00,0.00,VWS V14.00,2013-12-16 08:36:00,
2013-12-16 03:41:00,26.0,16.6,29.92,WNW,284,4.0,5.0,67,0.00,,---,0.00,0.00,VWS V14.00,2013-12-16 08:41:00,
2013-12-16 03:46:00,25.8,16.0,29.92,West,281,10.0,15.0,66,0.00,,---,0.00,0.00,VWS V14.00,2013-12-16 08:46:00,
2013-12-16 03:51:00,25.7,15.9,29.92,WNW,282,9.0,12.0,66,0.00,,---,0.00,0.00,VWS V14.00,2013-12-16 08:51:00,
2013-12-16 03:56:00,25.7,15.6,29.93,WNW,292,5.0,8.0,65,0.00,,---,0.00,0.00,VWS V14.00,2013-12-16 08:56:00,
2013-12-16 04:01:00,25.7,15.9,29.92,West,270,2.0,4.0,66,0.00,,---,0.00,0.00,VWS V14.00,2013-12-16 09:01:00,
2013-12-16 04:06:00,25.6,15.8,29.93,SW,234,5.0,9.0,66,0.00,,---,0.00,0.00,VWS V14.00,2013-12-16 09:06:00,
2013-12-16 04:11:00,25.4,15.6,29.93,West,264,2.0,5.0,66,0.00,,---,0.00,0.00,VWS V14.00,2013-12-16 09:11:00,
2013-12-16 04:16:00,25.1,15.4,29.94,WSW,239,4.0,4.0,66,0.00,,---,0.00,0.00,VWS V14.00,2013-12-16 09:16:00,
2013-12-16 04:21:00,25.0,14.6,29.94,West,261,4.0,11.0,64,0.00,,---,0.00,0.00,VWS V14.00,2013-12-16 09:21:00,
2013-12-16 04:26:00,25.0,14.6,29.95,West,267,17.0,17.0,64,0.00,,---,0.00,0.00,VWS V14.00,2013-12-16 09:26:00,
2013-12-16 04:31:00,25.0,14.2,29.95,West,266,11.0,11.0,63,0.00,,---,0.00,0.00,VWS V14.00,2013-12-16 09:31:00,
2013-12-16 04:36:00,24.8,13.3,29.95,WNW,297,13.0,13.0,61,0.00,,---,0.00,0.00,VWS V14.00,2013-12-16 09:36:00,
2013-12-16 04:41:00,24.7,12.8,29.95,West,277,10.0,15.0,60,0.00,,---,0.00,0.00,VWS V14.00,2013-12-16 09:41:00,
2013-12-16 04:46:00,24.7,12.0,29.96,SW,232,2.0,10.0,58,0.00,,---,0.00,0.00,VWS V14.00,2013-12-16 09:46:00,
2013-12-16 04:51:00,24.7,12.4,29.97,West,265,10.0,14.0,59,0.00,,---,0.00,0.00,VWS V14.00,2013-12-16 09:51:00,
2013-12-16 04:56:00,24.7,12.0,29.96,West,269,5.0,7.0,58,0.00,,---,0.00,0.00,VWS V14.00,2013-12-16 09:56:00,
2013-12-16 05:01:00,24.7,12.4,29.97,NW,305,10.0,12.0,59,0.00,,---,0.00,0.00,VWS V14.00,2013-12-16 10:01:00,
2013-12-16 05:06:00,24.4,12.5,29.97,NW,305,10.0,10.0,60,0.00,,---,0.00,0.00,VWS V14.00,2013-12-16 10:06:00,
2013-12-16 05:11:00,24.2,12.7,29.98,WNW,288,2.0,5.0,61,0.00,,---,0.00,0.00,VWS V14.00,2013-12-16 10:11:00,
2013-12-16 05:16:00,24.2,12.3,29.98,West,263,6.0,6.0,60,0.00,,---,0.00,0.00,VWS V14.00,2013-12-16 10:16:00,
2013-12-16 05:21:00,24.2,12.3,29.99,WNW,299,5.0,9.0,60,0.00,,---,0.00,0.00,VWS V14.00,2013-12-16 10:21:00,
2013-12-16 05:26:00,24.2,12.3,29.99,West,272,4.0,7.0,60,0.00,,---,0.00,0.00,VWS V14.00,2013-12-16 10:26:00,
2013-12-16 05:31:00,24.2,12.3,29.99,WNW,288,4.0,11.0,60,0.00,,---,0.00,0.00,VWS V14.00,2013-12-16 10:31:00,
2013-12-16 05:36:00,24.1,12.2,29.99,West,279,6.0,7.0,60,0.00,,---,0.00,0.00,VWS V14.00,2013-12-16 10:36:00,
2013-12-16 05:41:00,23.9,12.4,29.99,NW,319,10.0,10.0,61,0.00,,---,0.00,0.00,VWS V14.00,2013-12-16 10:41:00,
2013-12-16 05:46:00,23.8,12.3,30.00,WSW,253,5.0,9.0,61,0.00,,---,0.00,0.00,VWS V14.00,2013-12-16 10:46:00,
2013-12-16 05:51:00,23.6,12.5,30.00,WNW,293,13.0,17.0,62,0.00,,---,0.00,0.00,VWS V14.00,2013-12-16 10:51:00,
2013-12-16 05:56:00,23.5,12.8,30.01,WNW,296,4.0,6.0,63,0.00,,---,0.00,0.00,VWS V14.00,2013-12-16 10:56:00,
2013-12-16 06:01:00,23.5,12.4,30.01,West,272,7.0,7.0,62,0.00,,---,0.00,0.00,VWS V14.00,2013-12-16 11:01:00,
2013-12-16 06:06:00,23.5,12.4,30.01,West,260,2.0,2.0,62,0.00,,---,0.00,0.00,VWS V14.00,2013-12-16 11:06:00,
2013-12-16 06:11:00,23.2,12.5,30.01,West,280,6.0,10.0,63,0.00,,---,0.00,0.00,VWS V14.00,2013-12-16 11:11:00,
2013-12-16 06:16:00,23.0,11.9,30.01,WNW,287,7.0,7.0,62,0.00,,---,0.00,0.00,VWS V14.00,2013-12-16 11:16:00,
2013-12-16 06:21:00,23.0,11.9,30.02,West,262,9.0,9.0,62,0.00,,---,0.00,0.00,VWS V14.00,2013-12-16 11:21:00,
2013-12-16 06:26:00,23.0,11.9,30.03,WNW,282,3.0,3.0,62,0.00,,---,0.00,0.00,VWS V14.00,2013-12-16 11:26:00,
2013-12-16 06:31:00,22.9,11.8,30.03,WNW,294,2.0,2.0,62,0.00,,---,0.00,0.00,VWS V14.00,2013-12-16 11:31:00,
2013-12-16 06:35:00,22.5,11.8,30.03,WNW,288,1.0,2.0,63,0.00,,---,0.00,0.00,VWS V14.00,2013-12-16 11:35:00,
2013-12-16 06:40:00,22.4,11.7,30.04,West,275,2.0,2.0,63,0.00,,---,0.00,0.00,VWS V14.00,2013-12-16 11:40:00,
2013-12-16 06:45:00,22.4,11.7,30.04,NW,308,6.0,7.0,63,0.00,,---,0.00,0.00,VWS V14.00,2013-12-16 11:45:00,
2013-12-16 06:50:00,22.4,11.7,30.04,WNW,286,2.0,3.0,63,0.00,,---,0.00,0.00,VWS V14.00,2013-12-16 11:50:00,
2013-12-16 06:55:00,22.2,11.9,30.04,West,275,2.0,3.0,64,0.00,,---,0.00,0.00,VWS V14.00,2013-12-16 11:55:00,
2013-12-16 07:00:00,22.1,12.1,30.05,West,269,4.0,4.0,65,0.00,,---,0.00,0.00,VWS V14.00,2013-12-16 12:00:00,
2013-12-16 07:05:00,21.8,11.9,30.05,West,271,2.0,2.0,65,0.00,,---,0.00,0.00,VWS V14.00,2013-12-16 12:05:00,
2013-12-16 07:10:00,21.8,12.2,30.06,West,266,2.0,2.0,66,0.00,,---,0.00,0.00,VWS V14.00,2013-12-16 12:10:00,
2013-12-16 07:15:00,21.6,12.0,30.05,West,267,5.0,5.0,66,0.00,,---,0.00,5.00,VWS V14.00,2013-12-16 12:15:00,
2013-12-16 07:20:00,21.6,12.0,30.05,WSW,258,3.0,6.0,66,0.00,,---,0.00,5.00,VWS V14.00,2013-12-16 12:20:00,
2013-12-16 07:25:00,21.6,12.0,30.05,West,264,1.0,2.0,66,0.00,,---,0.00,7.00,VWS V14.00,2013-12-16 12:25:00,
2013-12-16 07:30:00,21.6,12.0,30.06,West,268,2.0,2.0,66,0.00,,---,0.00,9.00,VWS V14.00,2013-12-16 12:30:00,
2013-12-16 07:35:00,21.4,11.8,30.07,West,278,1.0,1.0,66,0.00,,---,0.00,11.00,VWS V14.00,2013-12-16 12:35:00,
2013-12-16 07:40:00,21.3,11.7,30.07,West,263,3.0,3.0,66,0.00,,---,0.00,12.00,VWS V14.00,2013-12-16 12:40:00,
2013-12-16 07:45:00,21.1,11.5,30.07,West,276,3.0,3.0,66,0.00,,---,0.00,14.00,VWS V14.00,2013-12-16 12:45:00,
2013-12-16 07:50:00,21.1,11.5,30.08,West,266,2.0,3.0,66,0.00,,---,0.00,16.00,VWS V14.00,2013-12-16 12:50:00,
2013-12-16 07:55:00,21.1,11.2,30.08,WNW,302,4.0,7.0,65,0.00,,---,0.00,18.00,VWS V14.00,2013-12-16 12:55:00,
2013-12-16 08:00:00,21.1,11.2,30.08,West,271,7.0,8.0,65,0.00,,---,0.00,18.00,VWS V14.00,2013-12-16 13:00:00,
2013-12-16 08:05:00,21.1,10.8,30.09,West,279,14.0,14.0,64,0.00,,---,0.00,19.00,VWS V14.00,2013-12-16 13:05:00,
2013-12-16 08:10:00,21.3,10.7,30.09,WNW,294,3.0,8.0,63,0.00,,---,0.00,19.00,VWS V14.00,2013-12-16 13:10:00,
2013-12-16 08:15:00,21.3,10.3,30.09,West,277,4.0,6.0,62,0.00,,---,0.00,21.00,VWS V14.00,2013-12-16 13:15:00,
2013-12-16 08:20:00,21.3,10.3,30.09,WNW,287,6.0,8.0,62,0.00,,---,0.00,21.00,VWS V14.00,2013-12-16 13:20:00,
2013-12-16 08:25:00,21.3,10.0,30.10,West,261,4.0,10.0,61,0.00,,---,0.00,23.00,VWS V14.00,2013-12-16 13:25:00,
2013-12-16 08:30:00,21.4,9.7,30.10,West,261,4.0,5.0,60,0.00,,---,0.00,23.00,VWS V14.00,2013-12-16 13:30:00,
2013-12-16 08:35:00,21.6,9.9,30.11,WNW,286,2.0,5.0,60,0.00,,---,0.00,25.00,VWS V14.00,2013-12-16 13:35:00,
2013-12-16 08:40:00,21.6,9.9,30.11,NW,309,3.0,11.0,60,0.00,,---,0.00,25.00,VWS V14.00,2013-12-16 13:40:00,
2013-12-16 08:45:00,21.6,9.5,30.12,West,268,3.0,7.0,59,0.00,,---,0.00,26.00,VWS V14.00,2013-12-16 13:45:00,
2013-12-16 08:50:00,21.8,9.7,30.12,WNW,298,7.0,7.0,59,0.00,,---,0.00,26.00,VWS V14.00,2013-12-16 13:50:00,
2013-12-16 08:55:00,21.8,9.7,30.12,WSW,253,6.0,10.0,59,0.00,,---,0.00,26.00,VWS V14.00,2013-12-16 13:55:00,
2013-12-16 09:00:00,21.8,9.3,30.12,WNW,294,2.0,6.0,58,0.00,,---,0.00,28.00,VWS V14.00,2013-12-16 14:00:00,
2013-12-16 09:05:00,21.9,9.4,30.12,West,273,3.0,6.0,58,0.00,,---,0.00,28.00,VWS V14.00,2013-12-16 14:05:00,
2013-12-16 09:10:00,21.9,9.4,30.12,West,279,4.0,6.0,58,0.00,,---,0.00,28.00,VWS V14.00,2013-12-16 14:10:00,
2013-12-16 09:15:00,22.1,9.6,30.12,SW,229,5.0,7.0,58,0.00,,---,0.00,26.00,VWS V14.00,2013-12-16 14:15:00,
2013-12-16 09:20:00,22.2,9.7,30.13,NNW,344,6.0,11.0,58,0.00,,---,0.00,25.00,VWS V14.00,2013-12-16 14:20:00,
2013-12-16 09:25:00,22.2,9.3,30.12,West,271,6.0,15.0,57,0.00,,---,0.00,19.00,VWS V14.00,2013-12-16 14:25:00,
2013-12-16 09:30:00,22.1,9.6,30.13,WNW,296,5.0,7.0,58,0.00,,---,0.00,19.00,VWS V14.00,2013-12-16 14:30:00,
2013-12-16 09:35:00,21.9,9.8,30.13,WNW,291,9.0,9.0,59,0.00,,---,0.00,21.00,VWS V14.00,2013-12-16 14:35:00,
2013-12-16 09:40:00,21.9,9.4,30.13,West,277,11.0,11.0,58,0.00,,---,0.00,30.00,VWS V14.00,2013-12-16 14:40:00,
2013-12-16 09:45:00,21.9,9.4,30.13,WNW,292,6.0,12.0,58,0.00,,---,0.00,30.00,VWS V14.00,2013-12-16 14:45:00,
2013-12-16 09:50:00,22.2,9.7,30.13,West,280,12.0,12.0,58,0.00,,---,0.00,32.00,VWS V14.00,2013-12-16 14:50:00,
2013-12-16 09:55:00,22.4,9.9,30.13,WNW,298,9.0,12.0,58,0.00,,---,0.00,39.00,VWS V14.00,2013-12-16 14:55:00,
2013-12-16 10:00:00,22.5,9.6,30.13,NW,313,3.0,10.0,57,0.00,,---,0.00,32.00,VWS V14.00,2013-12-16 15:00:00,
2013-12-16 10:05:00,22.7,9.8,30.13,WNW,290,12.0,12.0,57,0.00,,---,0.00,30.00,VWS V14.00,2013-12-16 15:05:00,
2013-12-16 10:10:00,22.7,9.8,30.13,NW,321,7.0,10.0,57,0.00,,---,0.00,32.00,VWS V14.00,2013-12-16 15:10:00,
2013-12-16 10:15:00,22.7,9.4,30.13,NW,309,6.0,11.0,56,0.00,,---,0.00,33.00,VWS V14.00,2013-12-16 15:15:00,
2013-12-16 10:20:00,22.9,9.6,30.12,WSW,253,7.0,17.0,56,0.00,,---,0.00,33.00,VWS V14.00,2013-12-16 15:20:00,
2013-12-16 10:25:00,22.9,9.6,30.12,WNW,294,6.0,15.0,56,0.00,,---,0.00,33.00,VWS V14.00,2013-12-16 15:25:00,
2013-12-16 10:30:00,23.0,9.7,30.13,NW,316,5.0,7.0,56,0.00,,---,0.00,35.00,VWS V14.00,2013-12-16 15:30:00,
2013-12-16 10:35:00,23.2,9.4,30.13,West,281,2.0,14.0,55,0.00,,---,0.00,37.00,VWS V14.00,2013-12-16 15:35:00,
2013-12-16 10:40:00,23.3,9.5,30.12,West,279,5.0,6.0,55,0.00,,---,0.00,47.00,VWS V14.00,2013-12-16 15:40:00,
2013-12-16 10:45:00,23.5,10.1,30.12,WNW,290,9.0,9.0,56,0.00,,---,0.00,51.00,VWS V14.00,2013-12-16 15:45:00,
2013-12-16 10:50:00,23.5,9.7,30.12,West,267,6.0,9.0,55,0.00,,---,0.00,40.00,VWS V14.00,2013-12-16 15:50:00,
2013-12-16 10:55:00,23.8,10.0,30.12,West,273,12.0,13.0,55,0.00,,---,0.00,39.00,VWS V14.00,2013-12-16 15:55:00,
2013-12-16 11:00:00,23.8,10.0,30.12,West,272,13.0,13.0,55,0.00,,---,0.00,37.00,VWS V14.00,2013-12-16 16:00:00,
2013-12-16 11:05:00,23.8,9.6,30.12,WNW,288,7.0,10.0,54,0.00,,---,0.00,39.00,VWS V14.00,2013-12-16 16:05:00,
2013-12-16 11:10:00,23.9,9.7,30.12,WNW,284,5.0,9.0,54,0.00,,---,0.00,40.00,VWS V14.00,2013-12-16 16:10:00,
2013-12-16 11:15:00,24.1,9.5,30.12,WSW,255,2.0,7.0,53,0.00,,---,0.00,39.00,VWS V14.00,2013-12-16 16:15:00,
2013-12-16 11:20:00,24.2,9.6,30.11,WNW,296,2.0,9.0,53,0.00,,---,0.00,37.00,VWS V14.00,2013-12-16 16:20:00,
2013-12-16 11:25:00,24.4,9.3,30.12,North,10,3.0,13.0,52,0.00,,---,0.00,39.00,VWS V14.00,2013-12-16 16:25:00,
2013-12-16 11:30:00,24.5,9.4,30.11,WNW,298,12.0,12.0,52,0.00,,---,0.00,39.00,VWS V14.00,2013-12-16 16:30:00,
2013-12-16 11:35:00,24.7,9.6,30.11,West,277,4.0,10.0,52,0.00,,---,0.00,39.00,VWS V14.00,2013-12-16 16:35:00,
2013-12-16 11:40:00,24.7,9.6,30.11,NW,313,4.0,7.0,52,0.00,,---,0.00,39.00,VWS V14.00,2013-12-16 16:40:00,
2013-12-16 11:45:00,24.8,9.7,30.10,WSW,248,7.0,7.0,52,0.00,,---,0.00,39.00,VWS V14.00,2013-12-16 16:45:00,
2013-12-16 11:50:00,25.0,9.4,30.11,West,279,5.0,9.0,51,0.00,,---,0.00,39.00,VWS V14.00,2013-12-16 16:50:00,
2013-12-16 11:55:00,25.1,9.5,30.11,WNW,297,9.0,13.0,51,0.00,,---,0.00,51.00,VWS V14.00,2013-12-16 16:55:00,
2013-12-16 12:00:00,25.0,8.6,30.11,WNW,292,9.0,13.0,49,0.00,,---,0.00,40.00,VWS V14.00,2013-12-16 17:00:00,
2013-12-16 12:05:00,25.1,9.1,30.11,West,273,5.0,11.0,50,0.00,,---,0.00,40.00,VWS V14.00,2013-12-16 17:05:00,
2013-12-16 12:10:00,25.4,9.4,30.11,NW,319,10.0,11.0,50,0.00,,---,0.00,410.00,VWS V14.00,2013-12-16 17:10:00,
2013-12-16 12:15:00,25.7,9.2,30.11,WNW,298,11.0,13.0,49,0.00,,---,0.00,424.00,VWS V14.00,2013-12-16 17:15:00,
2013-12-16 12:20:00,25.8,8.4,30.11,NW,312,7.0,12.0,47,0.00,,---,0.00,420.00,VWS V14.00,2013-12-16 17:20:00,
2013-12-16 12:25:00,26.0,8.1,30.11,WNW,300,7.0,11.0,46,0.00,,---,0.00,441.00,VWS V14.00,2013-12-16 17:25:00,
2013-12-16 12:30:00,26.0,8.6,30.11,WNW,300,8.0,8.0,47,0.00,,---,0.00,427.00,VWS V14.00,2013-12-16 17:30:00,
2013-12-16 12:35:00,26.3,9.3,30.11,West,272,9.0,9.0,48,0.00,,---,0.00,425.00,VWS V14.00,2013-12-16 17:35:00,
2013-12-16 12:40:00,26.6,9.1,30.11,NW,307,10.0,13.0,47,0.00,,---,0.00,434.00,VWS V14.00,2013-12-16 17:40:00,
2013-12-16 12:45:00,26.4,8.9,30.11,WSW,255,1.0,14.0,47,0.00,,---,0.00,408.00,VWS V14.00,2013-12-16 17:45:00,
2013-12-16 12:50:00,26.4,8.4,30.11,WNW,297,5.0,13.0,46,0.00,,---,0.00,404.00,VWS V14.00,2013-12-16 17:50:00,
2013-12-16 12:55:00,26.7,9.7,30.11,NW,313,8.0,8.0,48,0.00,,---,0.00,417.00,VWS V14.00,2013-12-16 17:55:00,
2013-12-16 13:00:00,27.0,9.5,30.11,NW,310,8.0,16.0,47,0.00,,---,0.00,397.00,VWS V14.00,2013-12-16 18:00:00,
2013-12-16 13:05:00,27.2,9.2,30.11,WSW,250,6.0,15.0,46,0.00,,---,0.00,415.00,VWS V14.00,2013-12-16 18:05:00,
2013-12-16 13:10:00,26.9,8.9,30.11,West,261,7.0,11.0,46,0.00,,---,0.00,396.00,VWS V14.00,2013-12-16 18:10:00,
2013-12-16 13:15:00,26.9,8.9,30.11,WNW,296,5.0,6.0,46,0.00,,---,0.00,411.00,VWS V14.00,2013-12-16 18:15:00,
2013-12-16 13:20:00,26.9,9.4,30.11,NNW,329,7.0,14.0,47,0.00,,---,0.00,406.00,VWS V14.00,2013-12-16 18:20:00,
2013-12-16 13:25:00,26.6,8.6,30.11,West,273,5.0,14.0,46,0.00,,---,0.00,394.00,VWS V14.00,2013-12-16 18:25:00,
2013-12-16 13:30:00,26.3,7.9,30.11,NW,326,10.0,10.0,45,0.00,,---,0.00,364.00,VWS V14.00,2013-12-16 18:30:00,
2013-12-16 13:35:00,26.1,8.6,30.11,NW,306,9.0,13.0,47,0.00,,---,0.00,353.00,VWS V14.00,2013-12-16 18:35:00,
2013-12-16 13:40:00,26.0,8.1,30.11,West,263,5.0,12.0,46,0.00,,---,0.00,355.00,VWS V14.00,2013-12-16 18:40:00,
2013-12-16 13:45:00,25.8,7.9,30.11,WNW,297,4.0,11.0,46,0.00,,---,0.00,329.00,VWS V14.00,2013-12-16 18:45:00,
2013-12-16 13:50:00,26.0,9.0,30.11,West,264,4.0,11.0,48,0.00,,---,0.00,151.00,VWS V14.00,2013-12-16 18:50:00,
2013-12-16 13:55:00,26.0,8.6,30.11,NW,318,6.0,9.0,47,0.00,,---,0.00,46.00,VWS V14.00,2013-12-16 18:55:00,
2013-12-16 14:00:00,26.1,8.2,30.12,WSW,254,4.0,10.0,46,0.00,,---,0.00,54.00,VWS V14.00,2013-12-16 19:00:00,
2013-12-16 14:05:00,26.1,8.6,30.11,WSW,237,12.0,15.0,47,0.00,,---,0.00,49.00,VWS V14.00,2013-12-16 19:05:00,
2013-12-16 14:10:00,26.0,8.1,30.12,West,278,9.0,9.0,46,0.00,,---,0.00,40.00,VWS V14.00,2013-12-16 19:10:00,
2013-12-16 14:15:00,25.8,8.4,30.12,West,275,6.0,9.0,47,0.00,,---,0.00,40.00,VWS V14.00,2013-12-16 19:15:00,
2013-12-16 14:20:00,25.7,7.8,30.13,West,260,6.0,9.0,46,0.00,,---,0.00,47.00,VWS V14.00,2013-12-16 19:20:00,
2013-12-16 14:25:00,25.7,8.7,30.13,WNW,284,4.0,7.0,48,0.00,,---,0.00,44.00,VWS V14.00,2013-12-16 19:25:00,
2013-12-16 14:30:00,25.7,8.3,30.14,WNW,288,5.0,14.0,47,0.00,,---,0.00,40.00,VWS V14.00,2013-12-16 19:30:00,
2013-12-16 14:35:00,25.6,7.7,30.14,West,280,4.0,11.0,46,0.00,,---,0.00,49.00,VWS V14.00,2013-12-16 19:35:00,
2013-12-16 14:40:00,25.6,8.6,30.14,WSW,243,4.0,4.0,48,0.00,,---,0.00,42.00,VWS V14.00,2013-12-16 19:40:00,
2013-12-16 14:45:00,25.6,7.7,30.14,WNW,300,11.0,11.0,46,0.00,,---,0.00,35.00,VWS V14.00,2013-12-16 19:45:00,
2013-12-16 14:50:00,25.4,8.9,30.15,WNW,288,11.0,11.0,49,0.00,,---,0.00,33.00,VWS V14.00,2013-12-16 19:50:00,
2013-12-16 14:55:00,25.3,8.4,30.15,West,267,5.0,9.0,48,0.00,,---,0.00,33.00,VWS V14.00,2013-12-16 19:55:00,
2013-12-16 15:00:00,25.1,7.7,30.15,WNW,286,3.0,7.0,47,0.00,,---,0.00,32.00,VWS V14.00,2013-12-16 20:00:00,
2013-12-16 15:05:00,25.1,8.2,30.15,NW,306,2.0,6.0,48,0.00,,---,0.00,32.00,VWS V14.00,2013-12-16 20:05:00,
2013-12-16 15:10:00,25.1,7.7,30.15,West,265,2.0,9.0,47,0.00,,---,0.00,30.00,VWS V14.00,2013-12-16 20:10:00,
2013-12-16 15:15:00,25.1,8.6,30.16,NNW,332,6.0,10.0,49,0.00,,---,0.00,30.00,VWS V14.00,2013-12-16 20:15:00,
2013-12-16 15:20:00,25.0,7.2,30.16,West,267,4.0,9.0,46,0.00,,---,0.00,30.00,VWS V14.00,2013-12-16 20:20:00,
2013-12-16 15:25:00,24.8,7.0,30.16,NW,322,4.0,6.0,46,0.00,,---,0.00,28.00,VWS V14.00,2013-12-16 20:25:00,
2013-12-16 15:30:00,24.7,7.3,30.17,WSW,258,4.0,7.0,47,0.00,,---,0.00,26.00,VWS V14.00,2013-12-16 20:30:00,
2013-12-16 15:35:00,24.7,6.9,30.17,WNW,295,5.0,11.0,46,0.00,,---,0.00,26.00,VWS V14.00,2013-12-16 20:35:00,
2013-12-16 15:40:00,24.5,7.6,30.17,WNW,296,5.0,6.0,48,0.00,,---,0.00,25.00,VWS V14.00,2013-12-16 20:40:00,
2013-12-16 15:45:00,24.4,7.1,30.17,West,277,4.0,6.0,47,0.00,,---,0.00,21.00,VWS V14.00,2013-12-16 20:45:00,
2013-12-16 15:50:00,24.2,6.9,30.18,WNW,299,6.0,9.0,47,0.00,,---,0.00,19.00,VWS V14.00,2013-12-16 20:50:00,
2013-12-16 15:55:00,24.1,7.3,30.18,WNW,289,5.0,6.0,48,0.00,,---,0.00,18.00,VWS V14.00,2013-12-16 20:55:00,
2013-12-16 16:00:00,23.9,7.1,30.19,West,268,4.0,11.0,48,0.00,,---,0.00,16.00,VWS V14.00,2013-12-16 21:00:00,
2013-12-16 16:05:00,23.8,7.4,30.19,West,267,1.0,5.0,49,0.00,,---,0.00,12.00,VWS V14.00,2013-12-16 21:05:00,
2013-12-16 16:10:00,23.5,7.2,30.19,West,278,7.0,12.0,49,0.00,,---,0.00,11.00,VWS V14.00,2013-12-16 21:10:00,
2013-12-16 16:15:00,23.5,6.7,30.19,WNW,294,6.0,7.0,48,0.00,,---,0.00,7.00,VWS V14.00,2013-12-16 21:15:00,
2013-12-16 16:20:00,23.3,7.0,30.19,WNW,284,3.0,12.0,49,0.00,,---,0.00,5.00,VWS V14.00,2013-12-16 21:20:00,
2013-12-16 16:25:00,23.2,6.9,30.20,West,270,5.0,5.0,49,0.00,,---,0.00,0.00,VWS V14.00,2013-12-16 21:25:00,
2013-12-16 16:30:00,23.0,6.7,30.20,West,262,3.0,11.0,49,0.00,,---,0.00,0.00,VWS V14.00,2013-12-16 21:30:00,
2013-12-16 16:35:00,22.9,6.6,30.20,WNW,290,11.0,14.0,49,0.00,,---,0.00,0.00,VWS V14.00,2013-12-16 21:35:00,
2013-12-16 16:40:00,22.7,6.9,30.20,West,281,4.0,10.0,50,0.00,,---,0.00,0.00,VWS V14.00,2013-12-16 21:40:00,
2013-12-16 16:45:00,22.7,6.9,30.21,WSW,250,4.0,6.0,50,0.00,,---,0.00,0.00,VWS V14.00,2013-12-16 21:45:00,
2013-12-16 16:50:00,22.5,7.1,30.21,West,281,5.0,9.0,51,0.00,,---,0.00,0.00,VWS V14.00,2013-12-16 21:50:00,
2013-12-16 16:55:00,22.4,7.0,30.21,WNW,298,7.0,7.0,51,0.00,,---,0.00,0.00,VWS V14.00,2013-12-16 21:55:00,
2013-12-16 17:00:00,22.2,6.8,30.22,WNW,298,4.0,10.0,51,0.00,,---,0.00,0.00,VWS V14.00,2013-12-16 22:00:00,
2013-12-16 17:05:00,22.2,7.3,30.22,WNW,296,3.0,6.0,52,0.00,,---,0.00,0.00,VWS V14.00,2013-12-16 22:05:00,
2013-12-16 17:10:00,22.1,7.2,30.22,West,278,2.0,7.0,52,0.00,,---,0.00,0.00,VWS V14.00,2013-12-16 22:10:00,
2013-12-16 17:15:00,21.9,7.0,30.22,West,276,1.0,2.0,52,0.00,,---,0.00,0.00,VWS V14.00,2013-12-16 22:15:00,
2013-12-16 17:20:00,21.8,7.3,30.23,West,274,4.0,4.0,53,0.00,,---,0.00,0.00,VWS V14.00,2013-12-16 22:20:00,
2013-12-16 17:25:00,21.6,7.1,30.23,West,274,0.0,1.0,53,0.00,,---,0.00,0.00,VWS V14.00,2013-12-16 22:25:00,
2013-12-16 17:30:00,21.4,6.9,30.24,West,275,0.0,2.0,53,0.00,,---,0.00,0.00,VWS V14.00,2013-12-16 22:30:00,
2013-12-16 17:35:00,21.4,6.9,30.24,West,274,1.0,2.0,53,0.00,,---,0.00,0.00,VWS V14.00,2013-12-16 22:35:00,
2013-12-16 17:40:00,21.3,6.8,30.24,West,275,0.0,1.0,53,0.00,,---,0.00,0.00,VWS V14.00,2013-12-16 22:40:00,
2013-12-16 17:45:00,21.1,6.7,30.24,West,274,1.0,2.0,53,0.00,,---,0.00,0.00,VWS V14.00,2013-12-16 22:45:00,
2013-12-16 17:50:00,21.0,7.0,30.25,West,274,1.0,2.0,54,0.00,,---,0.00,0.00,VWS V14.00,2013-12-16 22:50:00,
2013-12-16 17:55:00,21.0,6.6,30.25,West,273,0.0,4.0,53,0.00,,---,0.00,0.00,VWS V14.00,2013-12-16 22:55:00,
2013-12-16 18:00:00,21.0,7.0,30.26,West,273,0.0,2.0,54,0.00,,---,0.00,0.00,VWS V14.00,2013-12-16 23:00:00,
2013-12-16 18:05:00,20.8,6.8,30.26,West,273,0.0,1.0,54,0.00,,---,0.00,0.00,VWS V14.00,2013-12-16 23:05:00,
2013-12-16 18:10:00,20.6,6.6,30.26,SW,235,3.0,3.0,54,0.00,,---,0.00,0.00,VWS V14.00,2013-12-16 23:10:00,
2013-12-16 18:15:00,20.6,6.6,30.26,WSW,237,0.0,3.0,54,0.00,,---,0.00,0.00,VWS V14.00,2013-12-16 23:15:00,
2013-12-16 18:20:00,20.5,6.9,30.27,WSW,237,1.0,1.0,55,0.00,,---,0.00,0.00,VWS V14.00,2013-12-16 23:20:00,
2013-12-16 18:25:00,20.5,6.9,30.27,WSW,237,2.0,2.0,55,0.00,,---,0.00,0.00,VWS V14.00,2013-12-16 23:25:00,
2013-12-16 18:30:00,20.3,6.7,30.27,WSW,244,0.0,2.0,55,0.00,,---,0.00,0.00,VWS V14.00,2013-12-16 23:30:00,
2013-12-16 18:35:00,20.3,6.7,30.28,WSW,244,1.0,2.0,55,0.00,,---,0.00,0.00,VWS V14.00,2013-12-16 23:35:00,
2013-12-16 18:40:00,20.2,7.0,30.28,WSW,244,0.0,4.0,56,0.00,,---,0.00,0.00,VWS V14.00,2013-12-16 23:40:00,
2013-12-16 18:45:00,20.0,6.8,30.28,West,278,1.0,4.0,56,0.00,,---,0.00,0.00,VWS V14.00,2013-12-16 23:45:00,
2013-12-16 18:50:00,19.9,7.1,30.28,West,278,3.0,3.0,57,0.00,,---,0.00,0.00,VWS V14.00,2013-12-16 23:50:00,
2013-12-16 18:55:00,19.9,7.1,30.29,West,278,2.0,3.0,57,0.00,,---,0.00,0.00,VWS V14.00,2013-12-16 23:55:00,
2013-12-16 19:00:00,19.9,7.1,30.29,West,277,2.0,3.0,57,0.00,,---,0.00,0.00,VWS V14.00,2013-12-17 00:00:00,
2013-12-16 19:05:00,19.9,7.1,30.30,West,277,0.0,3.0,57,0.00,,---,0.00,0.00,VWS V14.00,2013-12-17 00:05:00,
2013-12-16 19:10:00,19.7,6.9,30.30,West,277,0.0,0.0,57,0.00,,---,0.00,0.00,VWS V14.00,2013-12-17 00:10:00,
2013-12-16 19:15:00,19.5,7.1,30.30,West,277,0.0,0.0,58,0.00,,---,0.00,0.00,VWS V14.00,2013-12-17 00:15:00,
2013-12-16 19:20:00,19.4,7.1,30.30,West,277,0.0,0.0,58,0.00,,---,0.00,0.00,VWS V14.00,2013-12-17 00:20:00,
2013-12-16 19:25:00,19.2,6.9,30.30,West,277,2.0,3.0,58,0.00,,---,0.00,0.00,VWS V14.00,2013-12-17 00:25:00,
2013-12-16 19:30:00,19.2,7.2,30.30,West,277,0.0,0.0,59,0.00,,---,0.00,0.00,VWS V14.00,2013-12-17 00:30:00,
2013-12-16 19:35:00,19.1,7.1,30.31,West,277,0.0,1.0,59,0.00,,---,0.00,0.00,VWS V14.00,2013-12-17 00:35:00,
2013-12-16 19:40:00,19.1,7.1,30.31,West,277,0.0,0.0,59,0.00,,---,0.00,0.00,VWS V14.00,2013-12-17 00:40:00,
2013-12-16 19:45:00,18.9,6.6,30.31,West,277,0.0,0.0,58,0.00,,---,0.00,0.00,VWS V14.00,2013-12-17 00:45:00,
2013-12-16 19:50:00,18.8,6.9,30.31,West,277,0.0,2.0,59,0.00,,---,0.00,0.00,VWS V14.00,2013-12-17 00:50:00,
2013-12-16 19:55:00,18.8,6.9,30.31,West,277,0.0,1.0,59,0.00,,---,0.00,0.00,VWS V14.00,2013-12-17 00:55:00,
2013-12-16 20:00:00,18.8,6.5,30.31,West,277,0.0,0.0,58,0.00,,---,0.00,0.00,VWS V14.00,2013-12-17 01:00:00,
2013-12-16 20:05:00,18.8,6.5,30.31,West,277,0.0,0.0,58,0.00,,---,0.00,0.00,VWS V14.00,2013-12-17 01:05:00,
2013-12-16 20:10:00,18.8,6.5,30.31,West,277,0.0,0.0,58,0.00,,---,0.00,0.00,VWS V14.00,2013-12-17 01:10:00,
2013-12-16 20:15:00,18.6,6.3,30.31,West,277,0.0,0.0,58,0.00,,---,0.00,0.00,VWS V14.00,2013-12-17 01:15:00,
2013-12-16 20:20:00,18.4,6.1,30.31,West,277,0.0,0.0,58,0.00,,---,0.00,0.00,VWS V14.00,2013-12-17 01:20:00,
2013-12-16 20:25:00,18.3,6.4,30.31,West,277,0.0,0.0,59,0.00,,---,0.00,0.00,VWS V14.00,2013-12-17 01:25:00,
2013-12-16 20:30:00,18.1,6.2,30.31,West,277,0.0,2.0,59,0.00,,---,0.00,0.00,VWS V14.00,2013-12-17 01:30:00,
2013-12-16 20:35:00,18.1,6.2,30.32,West,277,0.0,0.0,59,0.00,,---,0.00,0.00,VWS V14.00,2013-12-17 01:35:00,
2013-12-16 20:40:00,18.3,6.4,30.32,West,277,0.0,2.0,59,0.00,,---,0.00,0.00,VWS V14.00,2013-12-17 01:40:00,
2013-12-16 20:45:00,18.3,6.4,30.32,West,277,1.0,2.0,59,0.00,,---,0.00,0.00,VWS V14.00,2013-12-17 01:45:00,
2013-12-16 20:50:00,18.3,6.0,30.32,West,277,1.0,1.0,58,0.00,,---,0.00,0.00,VWS V14.00,2013-12-17 01:50:00,
2013-12-16 20:55:00,18.3,6.0,30.32,West,277,0.0,1.0,58,0.00,,---,0.00,0.00,VWS V14.00,2013-12-17 01:55:00,
2013-12-16 21:00:00,18.3,6.0,30.32,West,277,0.0,0.0,58,0.00,,---,0.00,0.00,VWS V14.00,2013-12-17 02:00:00,
2013-12-16 21:05:00,18.1,5.8,30.32,West,277,0.0,0.0,58,0.00,,---,0.00,0.00,VWS V14.00,2013-12-17 02:05:00,
2013-12-16 21:10:00,18.1,5.8,30.32,West,277,0.0,0.0,58,0.00,,---,0.00,0.00,VWS V14.00,2013-12-17 02:10:00,
2013-12-16 21:15:00,18.0,5.7,30.33,West,277,0.0,0.0,58,0.00,,---,0.00,0.00,VWS V14.00,2013-12-17 02:15:00,
2013-12-16 21:20:00,17.8,5.5,30.33,West,277,0.0,1.0,58,0.00,,---,0.00,0.00,VWS V14.00,2013-12-17 02:20:00,
2013-12-16 21:25:00,17.8,5.5,30.33,West,277,0.0,0.0,58,0.00,,---,0.00,0.00,VWS V14.00,2013-12-17 02:25:00,
2013-12-16 21:30:00,17.7,5.4,30.32,West,277,0.0,0.0,58,0.00,,---,0.00,0.00,VWS V14.00,2013-12-17 02:30:00,
2013-12-16 21:35:00,17.5,5.6,30.33,West,277,0.0,0.0,59,0.00,,---,0.00,0.00,VWS V14.00,2013-12-17 02:35:00,
2013-12-16 21:40:00,17.5,5.3,30.33,West,277,0.0,0.0,58,0.00,,---,0.00,0.00,VWS V14.00,2013-12-17 02:40:00,
2013-12-16 21:45:00,17.5,5.3,30.33,West,277,0.0,0.0,58,0.00,,---,0.00,0.00,VWS V14.00,2013-12-17 02:45:00,
2013-12-16 21:50:00,17.2,5.3,30.33,West,277,0.0,0.0,59,0.00,,---,0.00,0.00,VWS V14.00,2013-12-17 02:50:00,
2013-12-16 21:55:00,16.7,4.9,30.33,West,277,0.0,0.0,59,0.00,,---,0.00,0.00,VWS V14.00,2013-12-17 02:55:00,
2013-12-16 22:00:00,16.5,5.1,30.33,West,277,0.0,0.0,60,0.00,,---,0.00,0.00,VWS V14.00,2013-12-17 03:00:00,
2013-12-16 22:05:00,16.4,5.3,30.33,West,277,0.0,0.0,61,0.00,,---,0.00,0.00,VWS V14.00,2013-12-17 03:05:00,
2013-12-16 22:10:00,16.4,5.3,30.33,West,277,0.0,0.0,61,0.00,,---,0.00,0.00,VWS V14.00,2013-12-17 03:10:00,
2013-12-16 22:15:00,16.2,5.1,30.33,West,277,0.0,0.0,61,0.00,,---,0.00,0.00,VWS V14.00,2013-12-17 03:15:00,
2013-12-16 22:20:00,15.9,5.2,30.33,West,277,0.0,0.0,62,0.00,,---,0.00,0.00,VWS V14.00,2013-12-17 03:20:00,
2013-12-16 22:25:00,15.9,5.2,30.33,West,277,0.0,0.0,62,0.00,,---,0.00,0.00,VWS V14.00,2013-12-17 03:25:00,
2013-12-16 22:30:00,15.7,5.0,30.33,West,277,0.0,0.0,62,0.00,,---,0.00,0.00,VWS V14.00,2013-12-17 03:30:00,
2013-12-16 22:35:00,15.7,5.0,30.33,West,277,1.0,1.0,62,0.00,,---,0.00,0.00,VWS V14.00,2013-12-17 03:35:00,
2013-12-16 22:40:00,15.2,4.9,30.33,West,277,0.0,1.0,63,0.00,,---,0.00,0.00,VWS V14.00,2013-12-17 03:40:00,
2013-12-16 22:45:00,14.6,4.3,30.33,West,277,1.0,1.0,63,0.00,,---,0.00,0.00,VWS V14.00,2013-12-17 03:45:00,
2013-12-16 22:50:00,14.1,4.2,30.33,West,277,0.0,0.0,64,0.00,,---,0.00,0.00,VWS V14.00,2013-12-17 03:50:00,
2013-12-16 22:55:00,13.6,4.4,30.33,West,277,0.0,0.0,66,0.00,,---,0.00,0.00,VWS V14.00,2013-12-17 03:55:00,
2013-12-16 23:00:00,13.8,4.6,30.33,West,277,0.0,0.0,66,0.00,,---,0.00,0.00,VWS V14.00,2013-12-17 04:00:00,
2013-12-16 23:05:00,14.0,4.8,30.33,West,277,0.0,0.0,66,0.00,,---,0.00,0.00,VWS V14.00,2013-12-17 04:05:00,
2013-12-16 23:10:00,14.1,4.8,30.34,West,277,0.0,0.0,66,0.00,,---,0.00,0.00,VWS V14.00,2013-12-17 04:10:00,
2013-12-16 23:15:00,14.0,4.8,30.34,West,277,0.0,0.0,66,0.00,,---,0.00,0.00,VWS V14.00,2013-12-17 04:15:00,
2013-12-16 23:20:00,13.8,4.6,30.34,West,277,0.0,0.0,66,0.00,,---,0.00,0.00,VWS V14.00,2013-12-17 04:20:00,
2013-12-16 23:25:00,13.6,4.4,30.34,West,277,0.0,0.0,66,0.00,,---,0.00,0.00,VWS V14.00,2013-12-17 04:25:00,
2013-12-16 23:30:00,13.5,4.3,30.34,West,277,0.0,0.0,66,0.00,,---,0.00,0.00,VWS V14.00,2013-12-17 04:30:00,
2013-12-16 23:35:00,13.1,3.9,30.34,West,277,0.0,0.0,66,0.00,,---,0.00,0.00,VWS V14.00,2013-12-17 04:35:00,
2013-12-16 23:40:00,12.6,3.7,30.34,West,277,0.0,0.0,67,0.00,,---,0.00,0.00,VWS V14.00,2013-12-17 04:40:00,
2013-12-16 23:45:00,12.4,3.9,30.35,West,277,0.0,0.0,68,0.00,,---,0.00,0.00,VWS V14.00,2013-12-17 04:45:00,
2013-12-16 23:50:00,12.3,4.1,30.35,West,277,0.0,0.0,69,0.00,,---,0.00,0.00,VWS V14.00,2013-12-17 04:50:00,
2013-12-16 23:55:00,12.3,4.1,30.34,West,277,0.0,0.0,69,0.00,,---,0.00,0.00,VWS V14.00,2013-12-17 04:55:00,